SCP
0 0 0 0 0 0 0 0 0 0 0 0 0 0 0 0 0 0 0 0 0 0 0 0 0 0 0 0 -0 -0 -0 0 0 0 0 0 0 0 0 0 0 0 0 0
0 0 0 0 0 0 0 0 0 0 0 0 0 0 0 0 0 0 0 0 0 0 0 0 0 0 0 0 0 0 0 0 0 0 1 0 1 1 0 0 0 0 0 0
0 0 0 0 0 0 0 0 0 0 0 0 0 0 0 0 0 0 0 0 0 0 0 0 0 0 0 0 0 0 0 0 0 1 1 1 0 1 1 0 0 0 0 0
0 0 0 0 0 0 0 0 0 0 0 0 0 0 0 0 0 0 0 0 0 0 0 0 0 0 0 0 0 0 0 0 0 1 1 1 1 1 0 0 0 0 0 0
0 0 0 0 0 0 0 0 0 0 0 0 0 0 0 0 0 0 0 0 0 0 0 0 0 0 0 0 0 0 0 0 0 0 1 1 0 1 0 0 0 0 0 0
0 0 0 0 0 0 0 0 0 0 0 0 0 0 0 0 0 0 0 0 0 0 0 0 0 0 0 0 0 0 0 0 0 0 0 0 0 0 0 0 0 0 0 0
0 0 0 0 0 0 0 0 0 0 0 0 0 0 0 0 0 0 0 0 0 0 0 0 0 0 0 0 0 0 0 1 0 0 0 0 0 0 0 0 0 0 0 0
0 0 0 0 0 0 0 0 0 0 0 0 0 0 0 0 0 0 0 0 0 0 0 0 0 0 0 0 0 0 0 0 0 0 0 0 0 0 0 0 0 -0 0 0
0 0 0 0 0 0 0 0 0 0 0 0 0 0 0 0 0 0 0 0 0 0 0 0 0 0 1 0 0 0 0 0 0 0 0 0 0 0 0 -0 0 0 0 0
0 0 0 0 0 0 0 0 0 0 0 0 0 0 0 0 0 0 0 0 0 0 0 0 0 0 0 0 0 0 0 0 0 0 0 -0 0 0 -0 0 0 0 0 0
0 0 0 0 0 0 0 0 0 0 0 0 0 0 0 0 0 0 0 0 0 0 0 0 0 0 0 0 0 0 0 0 0 0 0 0 -0 0 0 0 0 0 0 0
0 0 0 0 0 0 0 0 0 0 0 0 0 0 0 0 0 0 0 0 0 0 0 0 0 0 0 0 0 0 0 0 0 0 0 0 0 0 0 0 0 0 0 0
0 0 0 0 0 0 0 0 0 0 0 0 0 0 0 0 0 0 0 0 0 0 0 0 0 0 0 0 0 -0 0 0 0 0 0 0 0 0 0 0 0 0 0 0
0 0 0 0 0 0 0 0 0 0 0 0 0 0 0 0 0 0 0 0 -0 -0 0 0 0 0 0 0 -0 0 0 0 0 0 0 0 0 0 0 0 0 0 0 0
0 0 0 0 0 0 0 0 0 0 0 0 0 0 0 0 0 0 0 0 0 0 -0 0 -0 0 0 0 0 0 0 0 0 0 0 0 0 0 0 0 0 0 0 0
0 0 0 0 0 0 0 0 0 0 0 0 0 0 0 0 0 0 0 0 0 0 -0 -0 -0 -0 0 -0 0 0 0 0 0 0 0 0 0 0 0 0 0 0 0 -0
0 0 0 0 0 0 0 0 0 0 0 0 0 0 0 0 0 0 0 -0 0 0 -0 -0 -0 -0 -0 -0 0 0 0 0 0 0 0 0 0 0 0 0 0 0 0 0
0 0 0 0 0 0 0 0 0 0 0 0 0 0 0 0 0 0 0 0 0 0 -0 -0 -0 -0 -0 -0 0 -0 0 0 0 0 0 0 0 0 0 0 0 0 0 0
0 0 0 0 0 0 0 0 0 0 0 0 0 0 0 0 0 0 0 0 0 0 0 -0 -0 -0 -0 0 -0 -0 0 0 0 0 0 0 0 0 0 0 0 0 0 0
0 0 0 0 0 0 0 0 0 0 0 0 0 0 0 0 0 0 0 0 0 0 -0 0 -0 0 0 0 0 0 0 0 0 0 0 0 0 0 0 0 0 0 -0 0
0 0 0 0 0 0 0 0 0 0 0 0 0 0 0 0 0 0 0 0 0 0 0 0 0 0 0 0 -0 -0 -0 -0 0 0 0 0 0 0 0 0 0 -0 -0 0
0 0 0 0 0 0 0 0 0 0 0 0 0 0 0 0 0 0 0 0 0 0 0 0 0 0 0 0 0 -0 -0 0 0 0 0 0 0 0 0 0 0 0 0 0
0 0 0 0 0 0 0 0 0 0 -0 0 0 0 0 0 0 0 0 0 0 0 0 0 0 0 0 -0 -0 0 0 0 0 0 0 0 0 0 0 0 0 0 0 0
0 0 0 0 0 0 0 -0 0 -0 -0 -0 -0 -0 0 0 0 0 0 0 0 0 0 0 0 0 0 -0 -0 -0 0 0 0 0 0 0 0 0 0 0 0 0 0 0
0 0 0 0 0 0 0 -0 -0 -0 -0 0 -0 0 0 0 0 0 0 0 0 0 0 0 0 0 0 0 0 0 0 -0 0 0 0 0 0 0 0 0 0 0 0 0
0 0 0 0 0 0 0 -0 0 0 0 0 0 0 0 0 0 0 0 0 0 0 0 0 -0 -0 0 0 0 0 -0 -0 -0 -0 0 0 0 0 0 0 0 0 0 0
0 0 0 0 0 0 0 0 -0 0 0 0 -0 -0 0 0 0 0 -0 0 0 0 0 -0 -0 0 0 0 -0 -0 -0 -0 0 0 0 0 0 0 0 0 0 0 0 0
Wind_Speed_500mb
19 25 26 27 28 28 27 29 29 33 34 27 28 22 14 8 9 21 22 26 29 35 39 43 45 46 46 48 50 49 49 49 43 32 25 22 16 12 8 5 3 2 2 6
26 34 14 28 31 26 16 19 22 18 14 21 15 19 19 22 18 24 24 28 35 40 44 45 46 47 47 48 50 50 50 47 42 40 33 30 27 17 15 10 7 4 1 5
24 17 22 31 23 15 17 21 14 21 29 26 24 28 39 38 32 15 29 38 42 46 47 50 50 50 51 51 52 51 50 48 46 43 34 28 26 24 18 16 12 5 3 2
16 22 22 17 14 17 15 20 11 17 24 29 32 30 38 30 23 31 40 48 50 52 53 56 56 59 60 61 60 62 57 51 53 43 46 34 31 28 25 14 5 4 0 6
11 17 24 14 18 16 20 27 19 18 24 30 35 39 19 27 38 46 53 58 60 59 60 61 62 60 58 59 59 55 53 52 51 49 46 38 40 41 25 10 8 3 4 5
20 18 16 16 14 16 24 20 26 30 35 41 46 27 25 70 63 59 57 57 60 61 60 58 54 52 54 52 49 47 50 54 56 50 42 34 13 25 24 16 14 2 7 13
16 21 8 18 22 22 19 13 38 42 45 47 31 40 53 59 57 53 52 53 54 50 49 45 45 41 51 46 46 50 52 44 48 40 32 16 7 16 12 16 11 4 6 17
8 13 11 24 18 14 24 41 43 42 43 45 46 49 50 51 51 54 54 54 51 49 48 43 40 47 49 42 44 51 46 49 32 3 13 7 9 14 18 13 10 9 9 10
12 18 25 20 13 25 29 33 38 41 42 44 47 51 52 52 52 52 53 54 50 48 47 49 45 52 42 44 46 50 42 19 2 11 8 8 12 16 18 9 14 16 15 16
14 5 18 29 22 16 26 33 40 42 44 47 51 54 56 56 57 56 53 51 49 47 47 47 42 36 38 45 51 42 39 5 6 4 8 21 22 10 1 2 16 14 15 16
22 21 21 5 20 29 37 38 40 44 48 53 55 59 60 61 59 58 55 52 49 45 44 46 47 39 35 39 44 33 38 10 10 17 20 25 13 19 17 14 12 15 16 16
9 22 17 28 35 36 38 43 50 55 57 57 58 61 62 61 58 55 53 50 49 48 45 40 37 31 30 34 37 24 15 18 18 21 22 14 16 21 21 27 34 30 32 21
20 24 23 31 36 36 47 50 53 59 60 63 64 64 55 55 55 59 55 53 53 51 41 36 35 25 18 35 27 12 14 21 14 13 17 7 8 12 17 28 37 40 42 43
13 17 27 30 42 45 49 55 56 60 62 65 64 60 59 55 50 47 46 46 50 45 39 34 34 22 21 34 21 6 22 13 18 21 16 11 14 20 18 14 19 23 37 38
11 19 32 41 44 50 54 57 62 63 63 61 58 65 61 57 51 51 47 45 40 37 39 29 27 17 22 24 11 15 15 14 14 12 16 14 16 18 15 20 19 17 22 27
22 29 35 41 48 52 56 60 64 60 64 69 68 62 69 69 59 63 42 35 33 34 32 27 20 8 18 13 11 16 23 23 15 13 15 15 20 13 18 22 21 23 23 23
27 35 42 48 54 58 60 60 66 67 67 58 81 84 64 56 50 43 41 39 33 29 25 21 16 7 18 6 15 19 13 15 16 15 16 16 14 18 21 21 23 24 24 31
28 37 42 49 52 57 58 65 65 61 59 81 69 68 62 53 42 33 28 19 20 21 16 11 13 8 6 18 24 12 8 15 14 16 18 16 18 19 21 21 22 20 19 27
31 38 43 47 46 50 53 53 53 58 63 60 62 67 59 31 20 18 14 15 13 9 5 7 6 8 21 25 28 12 17 15 17 18 18 20 21 21 23 21 21 19 19 19
34 38 42 45 47 45 42 50 50 50 48 52 46 50 37 21 11 7 3 6 11 5 7 10 21 34 41 33 23 14 16 15 15 18 19 19 21 21 24 26 22 21 15 25
36 40 38 51 40 40 42 40 44 41 40 39 35 30 31 27 20 15 5 21 18 8 18 40 39 43 35 22 19 21 17 16 17 20 20 19 20 20 21 19 19 18 14 26
35 39 43 34 38 36 35 39 33 31 33 37 28 22 22 24 26 20 24 21 27 45 48 45 37 31 27 24 21 21 20 22 23 24 20 20 20 18 18 17 17 16 16 23
31 33 30 32 33 32 33 32 28 25 25 24 25 21 22 20 18 29 42 48 47 43 41 42 39 35 32 24 24 24 26 25 27 26 20 22 22 19 17 15 14 15 15 16
28 24 28 30 28 27 29 29 23 20 19 16 15 29 42 45 52 54 51 41 37 42 41 36 32 37 27 25 25 28 26 25 26 25 24 22 22 21 20 15 13 16 11 13
17 24 23 23 25 29 26 22 17 17 21 34 37 45 53 57 56 52 48 48 39 35 33 33 38 32 25 24 24 25 26 24 22 24 24 23 21 21 18 16 12 15 11 11
18 15 15 20 22 23 16 16 23 31 45 49 53 52 51 52 48 43 38 36 31 27 25 24 24 25 26 27 26 27 27 23 21 22 24 25 23 19 18 16 16 16 12 4
13 13 15 18 20 22 20 26 39 42 48 50 49 43 40 41 37 28 27 24 22 21 24 24 24 26 25 25 28 26 25 22 21 21 21 21 23 22 19 17 16 15 15 17
Wind_Direction_500mb
296 297 293 288 292 300 299 303 299 315 311 336 27 18 2 294 335 329 344 349 352 351 350 349 347 346 345 345 346 344 338 336 330 310 304 297 287 278 256 221 215 201 350 358
291 269 290 298 291 289 335 326 312 324 43 2 355 317 309 328 337 328 339 338 338 336 335 337 336 333 331 333 334 337 332 326 322 307 293 289 284 262 250 239 234 215 282 269
294 337 311 282 41 356 325 308 351 317 353 344 3 1 329 323 310 332 339 335 335 333 331 331 330 329 326 322 323 323 322 320 314 307 291 284 283 258 244 238 217 193 182 228
290 302 288 81 37 331 338 301 344 340 343 351 344 342 323 354 31 332 337 328 325 322 319 319 319 319 320 318 314 312 311 313 318 307 297 279 279 251 237 223 215 187 357 291
283 305 318 181 65 13 347 318 31 349 342 337 335 327 317 15 351 332 323 317 314 311 310 312 314 315 317 317 319 313 312 315 314 306 299 278 283 237 211 175 54 310 78 211
306 301 292 66 29 346 331 279 30 350 335 328 323 306 320 337 330 324 319 318 317 314 310 308 313 316 313 320 322 316 322 326 308 300 288 288 349 63 73 66 100 82 7 342
292 288 293 38 336 328 271 22 337 331 326 325 324 321 315 314 317 321 323 323 324 324 325 323 319 321 327 320 325 323 315 302 303 296 288 297 136 87 55 46 331 24 1 270
279 259 266 14 326 355 342 322 325 326 326 323 318 314 315 318 319 320 322 323 325 326 329 327 332 333 333 333 325 322 315 300 310 23 49 69 85 70 70 51 358 336 6 51
328 334 329 337 334 322 324 322 325 324 322 317 315 315 317 317 316 320 323 321 322 323 325 333 341 336 350 335 339 343 341 313 175 125 52 8 82 97 99 67 354 347 354 5
309 123 314 329 332 329 323 320 318 317 316 316 316 315 313 313 313 314 316 320 321 320 326 325 330 340 344 338 337 352 342 309 173 303 95 108 96 97 109 52 33 22 16 15
290 287 344 292 344 327 317 316 316 315 315 314 313 311 310 308 309 309 310 311 315 318 318 325 329 347 340 339 341 3 351 341 56 68 60 65 54 51 39 60 36 29 29 39
335 352 325 318 320 316 314 319 317 314 314 313 310 309 308 306 307 311 310 309 308 304 314 322 329 338 334 331 349 357 28 45 45 57 52 71 57 56 46 35 31 38 58 68
304 316 314 311 308 316 318 315 315 317 312 311 311 312 323 318 314 314 310 307 307 312 306 318 324 341 343 345 344 15 64 46 39 68 70 45 261 129 45 28 48 60 60 52
305 311 312 318 314 315 314 314 315 314 315 316 314 313 310 309 308 306 307 306 301 305 312 310 310 335 338 346 342 110 72 63 69 66 58 27 61 71 76 69 72 56 53 53
292 305 307 309 314 316 316 317 316 318 318 316 314 313 313 320 308 298 299 303 304 297 314 310 305 336 341 345 42 89 73 85 71 46 40 67 76 68 62 70 74 67 52 41
308 308 312 318 317 317 319 320 321 318 317 314 313 312 309 305 299 295 291 294 297 307 298 312 314 315 341 1 71 100 89 81 64 41 61 66 67 63 71 77 80 70 61 48
316 318 320 320 320 322 322 321 321 319 320 314 311 313 313 309 296 288 289 281 278 290 291 287 293 237 333 115 112 82 75 58 59 59 58 58 71 72 85 82 86 78 64 51
311 312 316 316 324 321 321 321 322 319 316 317 321 325 321 309 296 286 274 287 284 279 276 289 260 270 301 130 105 94 61 60 61 62 70 76 73 81 87 86 91 81 54 24
314 316 317 324 326 324 323 327 320 319 325 331 337 342 331 312 293 273 273 264 266 276 303 226 229 222 137 116 94 65 62 62 68 73 76 65 75 91 86 88 92 79 61 39
320 322 324 324 324 332 330 324 324 332 342 353 356 2 16 38 55 74 220 174 290 130 91 136 134 118 114 98 88 74 73 75 79 86 83 72 81 93 85 108 95 79 60 55
325 326 324 324 334 332 326 329 336 344 353 355 5 12 23 43 45 29 35 106 99 99 135 119 115 112 97 89 78 83 80 76 83 82 76 71 82 94 89 103 89 77 68 75
332 323 328 334 333 333 333 343 347 356 8 13 24 35 49 55 47 70 93 96 104 120 118 118 105 110 95 85 84 82 78 79 80 75 69 64 85 95 92 100 86 76 68 68
334 333 335 334 334 334 340 356 355 4 5 15 36 50 61 67 75 92 99 105 107 109 113 111 108 96 87 86 83 77 74 79 78 71 59 65 81 100 95 98 81 84 73 57
342 345 332 338 338 344 3 3 9 21 20 45 74 88 97 98 100 100 100 103 110 114 103 99 93 92 85 83 80 71 66 71 78 74 64 65 77 90 88 74 82 92 79 60
348 339 344 356 3 8 20 12 36 56 80 91 99 107 105 100 105 102 103 100 96 87 84 85 91 83 87 88 87 81 80 76 75 74 71 66 67 74 76 75 94 118 91 53
1 4 7 13 22 28 38 66 80 103 108 105 106 102 99 98 97 104 110 107 89 93 87 85 85 87 90 87 84 82 72 61 70 77 74 72 63 68 69 66 72 55 50 156
22 34 46 50 49 68 90 102 109 107 106 101 97 96 97 93 92 91 93 91 85 86 89 86 82 87 87 80 74 68 64 71 74 72 75 73 78 73 56 58 55 64 47 27
Wind_Speed_850mb
19 25 26 27 28 28 27 29 29 33 34 27 28 22 14 8 9 21 22 26 29 35 39 43 45 46 46 48 50 49 49 49 43 32 25 22 16 12 8 5 3 2 2 6
26 34 14 28 31 26 16 19 22 18 14 21 15 19 19 22 18 24 24 28 35 40 44 45 46 47 47 48 50 50 50 47 42 40 33 30 27 17 15 10 7 4 1 5
24 17 22 31 23 15 17 21 14 21 29 26 24 28 39 38 32 15 29 38 42 46 47 50 50 50 51 51 52 51 50 48 46 43 34 28 26 24 18 16 12 5 3 2
16 22 22 17 14 17 15 20 11 17 24 29 32 30 38 30 23 31 40 48 50 52 53 56 56 59 60 61 60 62 57 51 53 43 46 34 31 28 25 14 5 4 0 6
11 17 24 14 18 16 20 27 19 18 24 30 35 39 19 27 38 46 53 58 60 59 60 61 62 60 58 59 59 55 53 52 51 49 46 38 40 41 25 10 8 3 4 5
20 18 16 16 14 16 24 20 26 30 35 41 46 27 25 70 63 59 57 57 60 61 60 58 54 52 54 52 49 47 50 54 56 50 42 34 13 25 24 16 14 2 7 13
16 21 8 18 22 22 19 13 38 42 45 47 31 40 53 59 57 53 52 53 54 50 49 45 45 41 51 46 46 50 52 44 48 40 32 16 7 16 12 16 11 4 6 17
8 13 11 24 18 14 24 41 43 42 43 45 46 49 50 51 51 54 54 54 51 49 48 43 40 47 49 42 44 51 46 49 32 3 13 7 9 14 18 13 10 9 9 10
12 18 25 20 13 25 29 33 38 41 42 44 47 51 52 52 52 52 53 54 50 48 47 49 45 52 42 44 46 50 42 19 2 11 8 8 12 16 18 9 14 16 15 16
14 5 18 29 22 16 26 33 40 42 44 47 51 54 56 56 57 56 53 51 49 47 47 47 42 36 38 45 51 42 39 5 6 4 8 21 22 10 1 2 16 14 15 16
22 21 21 5 20 29 37 38 40 44 48 53 55 59 60 61 59 58 55 52 49 45 44 46 47 39 35 39 44 33 38 10 10 17 20 25 13 19 17 14 12 15 16 16
9 22 17 28 35 36 38 43 50 55 57 57 58 61 62 61 58 55 53 50 49 48 45 40 37 31 30 34 37 24 15 18 18 21 22 14 16 21 21 27 34 30 32 21
20 24 23 31 36 36 47 50 53 59 60 63 64 64 55 55 55 59 55 53 53 51 41 36 35 25 18 35 27 12 14 21 14 13 17 7 8 12 17 28 37 40 42 43
13 17 27 30 42 45 49 55 56 60 62 65 64 60 59 55 50 47 46 46 50 45 39 34 34 22 21 34 21 6 22 13 18 21 16 11 14 20 18 14 19 23 37 38
11 19 32 41 44 50 54 57 62 63 63 61 58 65 61 57 51 51 47 45 40 37 39 29 27 17 22 24 11 15 15 14 14 12 16 14 16 18 15 20 19 17 22 27
22 29 35 41 48 52 56 60 64 60 64 69 68 62 69 69 59 63 42 35 33 34 32 27 20 8 18 13 11 16 23 23 15 13 15 15 20 13 18 22 21 23 23 23
27 35 42 48 54 58 60 60 66 67 67 58 81 84 64 56 50 43 41 39 33 29 25 21 16 7 18 6 15 19 13 15 16 15 16 16 14 18 21 21 23 24 24 31
28 37 42 49 52 57 58 65 65 61 59 81 69 68 62 53 42 33 28 19 20 21 16 11 13 8 6 18 24 12 8 15 14 16 18 16 18 19 21 21 22 20 19 27
31 38 43 47 46 50 53 53 53 58 63 60 62 67 59 31 20 18 14 15 13 9 5 7 6 8 21 25 28 12 17 15 17 18 18 20 21 21 23 21 21 19 19 19
34 38 42 45 47 45 42 50 50 50 48 52 46 50 37 21 11 7 3 6 11 5 7 10 21 34 41 33 23 14 16 15 15 18 19 19 21 21 24 26 22 21 15 25
36 40 38 51 40 40 42 40 44 41 40 39 35 30 31 27 20 15 5 21 18 8 18 40 39 43 35 22 19 21 17 16 17 20 20 19 20 20 21 19 19 18 14 26
35 39 43 34 38 36 35 39 33 31 33 37 28 22 22 24 26 20 24 21 27 45 48 45 37 31 27 24 21 21 20 22 23 24 20 20 20 18 18 17 17 16 16 23
31 33 30 32 33 32 33 32 28 25 25 24 25 21 22 20 18 29 42 48 47 43 41 42 39 35 32 24 24 24 26 25 27 26 20 22 22 19 17 15 14 15 15 16
28 24 28 30 28 27 29 29 23 20 19 16 15 29 42 45 52 54 51 41 37 42 41 36 32 37 27 25 25 28 26 25 26 25 24 22 22 21 20 15 13 16 11 13
17 24 23 23 25 29 26 22 17 17 21 34 37 45 53 57 56 52 48 48 39 35 33 33 38 32 25 24 24 25 26 24 22 24 24 23 21 21 18 16 12 15 11 11
18 15 15 20 22 23 16 16 23 31 45 49 53 52 51 52 48 43 38 36 31 27 25 24 24 25 26 27 26 27 27 23 21 22 24 25 23 19 18 16 16 16 12 4
13 13 15 18 20 22 20 26 39 42 48 50 49 43 40 41 37 28 27 24 22 21 24 24 24 26 25 25 28 26 25 22 21 21 21 21 23 22 19 17 16 15 15 17
Wind_Direction_850mb
296 297 293 288 292 300 299 303 299 315 311 336 27 18 2 294 335 329 344 349 352 351 350 349 347 346 345 345 346 344 338 336 330 310 304 297 287 278 256 221 215 201 350 358
291 269 290 298 291 289 335 326 312 324 43 2 355 317 309 328 337 328 339 338 338 336 335 337 336 333 331 333 334 337 332 326 322 307 293 289 284 262 250 239 234 215 282 269
294 337 311 282 41 356 325 308 351 317 353 344 3 1 329 323 310 332 339 335 335 333 331 331 330 329 326 322 323 323 322 320 314 307 291 284 283 258 244 238 217 193 182 228
290 302 288 81 37 331 338 301 344 340 343 351 344 342 323 354 31 332 337 328 325 322 319 319 319 319 320 318 314 312 311 313 318 307 297 279 279 251 237 223 215 187 357 291
283 305 318 181 65 13 347 318 31 349 342 337 335 327 317 15 351 332 323 317 314 311 310 312 314 315 317 317 319 313 312 315 314 306 299 278 283 237 211 175 54 310 78 211
306 301 292 66 29 346 331 279 30 350 335 328 323 306 320 337 330 324 319 318 317 314 310 308 313 316 313 320 322 316 322 326 308 300 288 288 349 63 73 66 100 82 7 342
292 288 293 38 336 328 271 22 337 331 326 325 324 321 315 314 317 321 323 323 324 324 325 323 319 321 327 320 325 323 315 302 303 296 288 297 136 87 55 46 331 24 1 270
279 259 266 14 326 355 342 322 325 326 326 323 318 314 315 318 319 320 322 323 325 326 329 327 332 333 333 333 325 322 315 300 310 23 49 69 85 70 70 51 358 336 6 51
328 334 329 337 334 322 324 322 325 324 322 317 315 315 317 317 316 320 323 321 322 323 325 333 341 336 350 335 339 343 341 313 175 125 52 8 82 97 99 67 354 347 354 5
309 123 314 329 332 329 323 320 318 317 316 316 316 315 313 313 313 314 316 320 321 320 326 325 330 340 344 338 337 352 342 309 173 303 95 108 96 97 109 52 33 22 16 15
290 287 344 292 344 327 317 316 316 315 315 314 313 311 310 308 309 309 310 311 315 318 318 325 329 347 340 339 341 3 351 341 56 68 60 65 54 51 39 60 36 29 29 39
335 352 325 318 320 316 314 319 317 314 314 313 310 309 308 306 307 311 310 309 308 304 314 322 329 338 334 331 349 357 28 45 45 57 52 71 57 56 46 35 31 38 58 68
304 316 314 311 308 316 318 315 315 317 312 311 311 312 323 318 314 314 310 307 307 312 306 318 324 341 343 345 344 15 64 46 39 68 70 45 261 129 45 28 48 60 60 52
305 311 312 318 314 315 314 314 315 314 315 316 314 313 310 309 308 306 307 306 301 305 312 310 310 335 338 346 342 110 72 63 69 66 58 27 61 71 76 69 72 56 53 53
292 305 307 309 314 316 316 317 316 318 318 316 314 313 313 320 308 298 299 303 304 297 314 310 305 336 341 345 42 89 73 85 71 46 40 67 76 68 62 70 74 67 52 41
308 308 312 318 317 317 319 320 321 318 317 314 313 312 309 305 299 295 291 294 297 307 298 312 314 315 341 1 71 100 89 81 64 41 61 66 67 63 71 77 80 70 61 48
316 318 320 320 320 322 322 321 321 319 320 314 311 313 313 309 296 288 289 281 278 290 291 287 293 237 333 115 112 82 75 58 59 59 58 58 71 72 85 82 86 78 64 51
311 312 316 316 324 321 321 321 322 319 316 317 321 325 321 309 296 286 274 287 284 279 276 289 260 270 301 130 105 94 61 60 61 62 70 76 73 81 87 86 91 81 54 24
314 316 317 324 326 324 323 327 320 319 325 331 337 342 331 312 293 273 273 264 266 276 303 226 229 222 137 116 94 65 62 62 68 73 76 65 75 91 86 88 92 79 61 39
320 322 324 324 324 332 330 324 324 332 342 353 356 2 16 38 55 74 220 174 290 130 91 136 134 118 114 98 88 74 73 75 79 86 83 72 81 93 85 108 95 79 60 55
325 326 324 324 334 332 326 329 336 344 353 355 5 12 23 43 45 29 35 106 99 99 135 119 115 112 97 89 78 83 80 76 83 82 76 71 82 94 89 103 89 77 68 75
332 323 328 334 333 333 333 343 347 356 8 13 24 35 49 55 47 70 93 96 104 120 118 118 105 110 95 85 84 82 78 79 80 75 69 64 85 95 92 100 86 76 68 68
334 333 335 334 334 334 340 356 355 4 5 15 36 50 61 67 75 92 99 105 107 109 113 111 108 96 87 86 83 77 74 79 78 71 59 65 81 100 95 98 81 84 73 57
342 345 332 338 338 344 3 3 9 21 20 45 74 88 97 98 100 100 100 103 110 114 103 99 93 92 85 83 80 71 66 71 78 74 64 65 77 90 88 74 82 92 79 60
348 339 344 356 3 8 20 12 36 56 80 91 99 107 105 100 105 102 103 100 96 87 84 85 91 83 87 88 87 81 80 76 75 74 71 66 67 74 76 75 94 118 91 53
1 4 7 13 22 28 38 66 80 103 108 105 106 102 99 98 97 104 110 107 89 93 87 85 85 87 90 87 84 82 72 61 70 77 74 72 63 68 69 66 72 55 50 156
22 34 46 50 49 68 90 102 109 107 106 101 97 96 97 93 92 91 93 91 85 86 89 86 82 87 87 80 74 68 64 71 74 72 75 73 78 73 56 58 55 64 47 27